When you browse on this site, cookies collect data to enhance your experience and personalize the content and advertising you see.
Visit our Privacy Policy to learn more. By continuing to use the site, you agree to this use of cookies and data.
  • In Lithuania
  • List of Countries
  • For 7 days
  • Water Temperature
  • Satellite Maps
  • Weather Map
  • Weather Widgets
  • user-avatar
    Login

    Hourly Weather Mingachevir

    Today, 21 April, Sunday

    Time Temperature Precipitation Wind Pressure Humidity
    00:00 +5°C° 0 mm 4 mps 756 mmHg 77%
    01:00 +5°C° 0 mm 3 mps 756 mmHg 78%
    02:00 +4°C° 0 mm 3 mps 755 mmHg 78%
    03:00 +4°C° 0 mm 3 mps 755 mmHg 79%
    04:00 +4°C° 0 mm 3 mps 755 mmHg 79%
    05:00 +4°C° 0 mm 3 mps 755 mmHg 78%
    06:00 +4°C° 0 mm 3 mps 756 mmHg 78%
    07:00 +5°C° 0 mm 4 mps 755 mmHg 72%
    08:00 +7°C° 0 mm 4 mps 755 mmHg 66%
    09:00 +8°C° 0 mm 5 mps 755 mmHg 60%
    10:00 +9°C° 0 mm 5 mps 755 mmHg 58%
    11:00 +10°C° 0 mm 5 mps 755 mmHg 56%
    12:00 +12°C° 0 mm 5 mps 754 mmHg 54%
    13:00 +11°C° 0 mm 6 mps 754 mmHg 53%
    14:00 +13°C° 0 mm 6 mps 754 mmHg 52%
    15:00 +13°C° 0 mm 6 mps 753 mmHg 51%
    16:00 +13°C° 0 mm 6 mps 754 mmHg 53%
    17:00 +12°C° 0 mm 5 mps 754 mmHg 55%
    18:00 +12°C° 0 mm 5 mps 754 mmHg 58%
    19:00 +10°C° 0 mm 5 mps 755 mmHg 62%
    20:00 +9°C° 0 mm 5 mps 755 mmHg 67%
    21:00 +8°C° 0 mm 6 mps 756 mmHg 72%
    22:00 +7°C° 0 mm 5 mps 756 mmHg 74%
    23:00 +7°C° 0 mm 5 mps 756 mmHg 76%

    Tomorrow, 22 April, Monday

    Time Temperature Precipitation Wind Pressure Humidity
    00:00 +6°C° 0 mm 5 mps 756 mmHg 78%
    01:00 +6°C° 0 mm 4 mps 756 mmHg 79%
    02:00 +6°C° 0 mm 4 mps 756 mmHg 81%
    03:00 +5°C° 0 mm 3 mps 756 mmHg 83%
    04:00 +5°C° 0 mm 3 mps 756 mmHg 82%
    05:00 +5°C° 0 mm 3 mps 756 mmHg 82%
    06:00 +5°C° 0 mm 3 mps 756 mmHg 82%
    07:00 +7°C° 0 mm 4 mps 756 mmHg 73%
    08:00 +8°C° 0 mm 5 mps 755 mmHg 65%
    09:00 +10°C° 0 mm 5 mps 755 mmHg 57%
    10:00 +10°C° 0 mm 5 mps 755 mmHg 54%
    11:00 +12°C° 0 mm 5 mps 755 mmHg 52%
    12:00 +12°C° 0 mm 5 mps 755 mmHg 49%
    13:00 +13°C° 0 mm 5 mps 754 mmHg 49%
    14:00 +13°C° 0 mm 5 mps 754 mmHg 48%
    15:00 +13°C° 0 mm 5 mps 754 mmHg 48%
    16:00 +12°C° 0 mm 5 mps 754 mmHg 52%
    17:00 +11°C° 0 mm 6 mps 754 mmHg 57%
    18:00 +10°C° 0 mm 6 mps 755 mmHg 62%
    19:00 +9°C° 0.3 mm 6 mps 755 mmHg 67%
    20:00 +8°C° 0.3 mm 6 mps 756 mmHg 72%
    21:00 +8°C° 0.3 mm 6 mps 757 mmHg 77%
    22:00 +7°C° 0.2 mm 6 mps 757 mmHg 75%
    23:00 +7°C° 0.2 mm 5 mps 757 mmHg 73%

    Day after tomorrow, 23 April, Tuesday

    Time Temperature Precipitation Wind Pressure Humidity
    00:00 +7°C° 0.2 mm 5 mps 758 mmHg 72%
    01:00 +7°C° 0.1 mm 4 mps 758 mmHg 72%
    02:00 +8°C° 0.1 mm 3 mps 758 mmHg 73%
    03:00 +8°C° 0.1 mm 2 mps 758 mmHg 73%
    04:00 +9°C° 0 mm 1 mps 758 mmHg 73%
    05:00 +9°C° 0 mm 1 mps 759 mmHg 73%
    06:00 +9°C° 0 mm 1 mps 759 mmHg 73%
    07:00 +10°C° 0 mm 1 mps 759 mmHg 66%
    08:00 +10°C° 0 mm 2 mps 759 mmHg 59%
    09:00 +13°C° 0 mm 2 mps 759 mmHg 53%
    10:00 +14°C° 0 mm 2 mps 759 mmHg 50%
    11:00 +14°C° 0 mm 3 mps 759 mmHg 47%
    12:00 +16°C° 0 mm 3 mps 759 mmHg 44%
    13:00 +16°C° 0 mm 3 mps 759 mmHg 43%
    14:00 +17°C° 0 mm 4 mps 759 mmHg 41%
    15:00 +17°C° 0 mm 4 mps 758 mmHg 40%
    16:00 +15°C° 0 mm 4 mps 759 mmHg 43%
    17:00 +15°C° 0 mm 4 mps 759 mmHg 45%
    18:00 +14°C° 0 mm 4 mps 759 mmHg 48%
    19:00 +13°C° 0 mm 4 mps 760 mmHg 51%
    20:00 +12°C° 0 mm 3 mps 760 mmHg 55%
    21:00 +11°C° 0 mm 3 mps 761 mmHg 58%
    22:00 +10°C° 0 mm 3 mps 761 mmHg 61%
    23:00 +9°C° 0 mm 2 mps 761 mmHg 64%

    24 April, Wednesday

    Time Temperature Precipitation Wind Pressure Humidity
    00:00 +9°C° 0 mm 2 mps 761 mmHg 66%
    01:00 +8°C° 0 mm 2 mps 761 mmHg 68%
    02:00 +8°C° 0 mm 2 mps 761 mmHg 69%
    03:00 +8°C° 0 mm 1 mps 762 mmHg 71%
    04:00 +9°C° 0 mm 1 mps 762 mmHg 70%
    05:00 +9°C° 0 mm 1 mps 762 mmHg 70%
    06:00 +8°C° 0 mm 0 mps 762 mmHg 70%
    07:00 +9°C° 0 mm 0 mps 762 mmHg 63%
    08:00 +12°C° 0 mm 1 mps 762 mmHg 56%
    09:00 +13°C° 0 mm 1 mps 762 mmHg 50%
    10:00 +14°C° 0 mm 1 mps 761 mmHg 47%
    11:00 +15°C° 0 mm 1 mps 761 mmHg 45%
    12:00 +16°C° 0 mm 1 mps 760 mmHg 42%
    13:00 +18°C° 0 mm 1 mps 760 mmHg 41%
    14:00 +18°C° 0 mm 1 mps 759 mmHg 40%
    15:00 +19°C° 0 mm 1 mps 759 mmHg 39%
    16:00 +18°C° 0 mm 1 mps 759 mmHg 42%
    17:00 +18°C° 0 mm 1 mps 759 mmHg 44%
    18:00 +17°C° 0 mm 2 mps 759 mmHg 46%
    19:00 +16°C° 0 mm 2 mps 759 mmHg 49%
    20:00 +15°C° 0 mm 1 mps 759 mmHg 52%
    21:00 +14°C° 0 mm 1 mps 760 mmHg 55%
    22:00 +13°C° 0 mm 2 mps 760 mmHg 56%
    23:00 +13°C° 0 mm 2 mps 760 mmHg 57%

    25 April, Thursday

    Time Temperature Precipitation Wind Pressure Humidity
    00:00 +12°C° 0 mm 2 mps 760 mmHg 58%
    01:00 +12°C° 0 mm 2 mps 760 mmHg 58%
    02:00 +11°C° 0 mm 1 mps 760 mmHg 58%
    03:00 +11°C° 0 mm 1 mps 760 mmHg 59%
    04:00 +10°C° 0 mm 0 mps 760 mmHg 59%
    05:00 +10°C° 0 mm 0 mps 761 mmHg 59%
    06:00 +10°C° 0 mm 0 mps 761 mmHg 60%
    07:00 +11°C° 0 mm 0 mps 761 mmHg 55%
    08:00 +14°C° 0 mm 1 mps 761 mmHg 51%
    09:00 +15°C° 0 mm 1 mps 761 mmHg 47%
    10:00 +16°C° 0 mm 1 mps 760 mmHg 44%
    11:00 +19°C° 0 mm 1 mps 760 mmHg 41%
    12:00 +20°C° 0 mm 1 mps 760 mmHg 38%
    13:00 +20°C° 0 mm 1 mps 760 mmHg 38%
    14:00 +20°C° 0 mm 2 mps 759 mmHg 37%
    15:00 +20°C° 0 mm 2 mps 759 mmHg 36%
    16:00 +20°C° 0 mm 3 mps 759 mmHg 39%
    17:00 +19°C° 0 mm 3 mps 760 mmHg 42%
    18:00 +19°C° 0 mm 3 mps 760 mmHg 46%
    19:00 +17°C° 0 mm 4 mps 760 mmHg 50%
    20:00 +15°C° 0 mm 4 mps 761 mmHg 53%
    21:00 +14°C° 0 mm 5 mps 761 mmHg 57%
    22:00 +13°C° 0 mm 4 mps 761 mmHg 61%
    23:00 +12°C° 0 mm 3 mps 761 mmHg 64%

    26 April, Friday

    Time Temperature Precipitation Wind Pressure Humidity
    00:00 +13°C° 0 mm 2 mps 761 mmHg 67%
    01:00 +12°C° 0 mm 2 mps 761 mmHg 69%
    02:00 +12°C° 0 mm 1 mps 761 mmHg 71%
    03:00 +11°C° 0 mm 1 mps 761 mmHg 72%
    04:00 +11°C° 0 mm 1 mps 761 mmHg 71%
    05:00 +12°C° 0 mm 1 mps 761 mmHg 70%
    06:00 +12°C° 0 mm 1 mps 761 mmHg 69%
    07:00 +14°C° 0 mm 1 mps 761 mmHg 63%
    08:00 +15°C° 0 mm 1 mps 761 mmHg 57%
    09:00 +18°C° 0 mm 1 mps 761 mmHg 50%
    10:00 +19°C° 0 mm 1 mps 760 mmHg 47%
    11:00 +19°C° 0 mm 2 mps 760 mmHg 43%
    12:00 +20°C° 0 mm 2 mps 759 mmHg 40%
    13:00 +21°C° 0 mm 2 mps 759 mmHg 38%
    14:00 +21°C° 0 mm 3 mps 759 mmHg 37%
    15:00 +22°C° 0 mm 3 mps 758 mmHg 35%
    16:00 +21°C° 0 mm 3 mps 758 mmHg 38%
    17:00 +21°C° 0 mm 3 mps 758 mmHg 41%
    18:00 +20°C° 0 mm 3 mps 758 mmHg 44%
    19:00 +19°C° 0 mm 3 mps 759 mmHg 48%
    20:00 +17°C° 0 mm 3 mps 759 mmHg 52%
    21:00 +16°C° 0 mm 3 mps 759 mmHg 56%
    22:00 +14°C° 0 mm 3 mps 759 mmHg 58%
    23:00 +15°C° 0 mm 2 mps 759 mmHg 60%
    Show more